UAE1DM OMDB-EDDM

Flight info

Callsign UAE1DM
Flight time N/A
Altitude 28000
Route ANVIX R401 GIDIS G783 VAVIM T636 BUBUB/N0509F290 Z889 DEBAV/N0509F300 G652 TOKRA DCT ALROK DCT BOSOB DCT ITRUX Y511 PMA Z712 WEJ L677 DARAX/N0505F320 L677 GESON/N0496F340 Q777 RASDA DCT OTHON/N0490F360 DCT VAXOS DCT RDS UL609 MES DCT FSK DCT DISORDCT LONTA UL608 DOLEV DCT XELMI DCT ELTIB DCT RJK DCT EPODO DCT RASTA DCT REDBU Q112 NAPSA NAPSA1B
Aircraft B77W/H-SDE2E3GHIJ1J3J4J5M1P2RWXYZ/LB1D1

Departure

Time 2026-04-20 12:36
Airport Dubai International Airport (OMDB)

Arrival

Time N/A
Airport Munich Airport (EDDM)
Time Latitude Longitude Altitude Speed Heading
2026-04-20 12:19 25.24112 55.37404 30 ft 0 kts 31°
2026-04-20 12:28 25.24093 55.37391 32 ft 4 kts 31°
2026-04-20 12:28 25.24070 55.37375 30 ft 4 kts 31°
2026-04-20 12:28 25.24051 55.37362 31 ft 4 kts 49°
2026-04-20 12:28 25.24041 55.37338 31 ft 4 kts 94°
2026-04-20 12:29 25.24048 55.37310 30 ft 4 kts 121°
2026-04-20 12:29 25.24061 55.37286 31 ft 4 kts 122°
2026-04-20 12:29 25.24070 55.37270 31 ft 0 kts 122°
2026-04-20 12:31 25.24059 55.37290 28 ft 11 kts 122°
2026-04-20 12:31 25.24011 55.37373 30 ft 13 kts 122°
2026-04-20 12:31 25.23969 55.37459 27 ft 13 kts 109°
2026-04-20 12:32 25.23971 55.37556 28 ft 13 kts 73°
2026-04-20 12:32 25.24032 55.37621 30 ft 13 kts 29°
2026-04-20 12:32 25.24110 55.37671 29 ft 13 kts 31°
2026-04-20 12:32 25.24185 55.37723 30 ft 13 kts 32°
2026-04-20 12:33 25.24262 55.37773 30 ft 13 kts 30°
2026-04-20 12:33 25.24337 55.37827 26 ft 13 kts 35°
2026-04-20 12:33 25.24410 55.37883 28 ft 13 kts 33°
2026-04-20 12:33 25.24485 55.37937 30 ft 13 kts 33°
2026-04-20 12:34 25.24561 55.37995 28 ft 14 kts 34°
2026-04-20 12:34 25.24646 55.38055 28 ft 14 kts 31°
2026-04-20 12:34 25.24729 55.38106 31 ft 14 kts 12°
2026-04-20 12:34 25.24797 55.38042 30 ft 15 kts 300°
2026-04-20 12:35 25.24910 55.37838 30 ft 59 kts 301°
2026-04-20 12:35 25.25255 55.37218 32 ft 129 kts 301°
2026-04-20 12:35 25.25833 55.36178 47 ft 183 kts 301°
2026-04-20 12:35 25.26506 55.34965 579 ft 189 kts 301°
2026-04-20 12:36 25.27216 55.33710 1089 ft 196 kts 301°
2026-04-20 12:36 25.27927 55.32419 1618 ft 198 kts 301°
2026-04-20 12:36 25.28648 55.31122 2110 ft 198 kts 302°
2026-04-20 12:36 25.29234 55.29768 2551 ft 201 kts 278°
2026-04-20 12:37 25.29043 55.28260 2983 ft 201 kts 248°
2026-04-20 12:37 25.28446 55.26861 3396 ft 204 kts 246°
2026-04-20 12:37 25.27835 55.25410 3719 ft 217 kts 247°
2026-04-20 12:37 25.27166 55.23829 3898 ft 238 kts 246°
2026-04-20 12:38 25.26430 55.22094 4068 ft 260 kts 246°
2026-04-20 12:38 25.25695 55.20215 4477 ft 271 kts 251°
2026-04-20 12:38 25.25034 55.18238 5059 ft 277 kts 252°
2026-04-20 12:38 25.24384 55.16221 5741 ft 280 kts 252°
2026-04-20 12:39 25.23079 55.12168 7080 ft 284 kts 252°
2026-04-20 12:39 25.22412 55.10108 7735 ft 286 kts 252°
2026-04-20 12:39 25.21737 55.08030 8385 ft 288 kts 252°
2026-04-20 12:40 25.21055 55.05939 9048 ft 291 kts 252°
2026-04-20 12:40 25.20682 55.04799 9408 ft 292 kts 251°
2026-04-20 12:40 25.19989 55.02685 10021 ft 295 kts 251°
2026-04-20 12:40 25.19274 55.00502 10316 ft 313 kts 252°
2026-04-20 12:41 25.18914 54.99406 10383 ft 323 kts 252°
2026-04-20 12:41 25.18127 54.97004 10556 ft 344 kts 252°
2026-04-20 12:41 25.17286 54.94445 10712 ft 365 kts 251°
2026-04-20 12:41 25.16404 54.91770 11108 ft 376 kts 251°
2026-04-20 12:42 25.15499 54.89029 11680 ft 383 kts 252°
2026-04-20 12:42 25.14582 54.86259 12417 ft 385 kts 252°
2026-04-20 12:42 25.13659 54.83473 13200 ft 387 kts 252°
2026-04-20 12:42 25.12732 54.80676 13918 ft 390 kts 252°
2026-04-20 12:43 25.11797 54.77856 14547 ft 393 kts 252°
2026-04-20 12:43 25.10867 54.75049 15157 ft 397 kts 252°
2026-04-20 12:43 25.09914 54.72176 15773 ft 401 kts 252°
2026-04-20 12:43 25.08952 54.69277 16413 ft 404 kts 252°
2026-04-20 12:44 25.07981 54.66352 17054 ft 408 kts 252°
2026-04-20 12:44 25.07001 54.63404 17703 ft 411 kts 251°
2026-04-20 12:44 25.06012 54.60434 18297 ft 414 kts 251°
2026-04-20 12:44 25.05016 54.57441 18879 ft 417 kts 251°
2026-04-20 12:45 25.04016 54.54440 19493 ft 418 kts 251°
2026-04-20 12:45 25.03013 54.51434 20120 ft 419 kts 251°
2026-04-20 12:45 25.02019 54.48457 20715 ft 420 kts 251°
2026-04-20 12:45 25.01007 54.45425 21263 ft 422 kts 251°
2026-04-20 12:46 24.99989 54.42379 21830 ft 425 kts 251°
2026-04-20 12:46 24.98963 54.39313 22346 ft 428 kts 251°
2026-04-20 12:46 24.97932 54.36230 22865 ft 430 kts 251°
2026-04-20 12:46 24.96894 54.33131 23393 ft 432 kts 251°
2026-04-20 12:47 24.95850 54.30018 23833 ft 434 kts 251°
2026-04-20 12:47 24.94815 54.26931 24217 ft 437 kts 251°
2026-04-20 12:47 24.93757 54.23781 24585 ft 440 kts 251°
2026-04-20 12:47 24.92691 54.20607 24968 ft 443 kts 251°
2026-04-20 12:48 24.91617 54.17415 25372 ft 446 kts 251°
2026-04-20 12:48 24.90537 54.14205 25766 ft 448 kts 251°
2026-04-20 12:48 24.89450 54.10978 26154 ft 451 kts 251°
2026-04-20 12:48 24.88356 54.07734 26536 ft 453 kts 251°
2026-04-20 12:49 24.87255 54.04470 26909 ft 456 kts 251°
2026-04-20 12:49 24.86148 54.01191 27278 ft 458 kts 251°
2026-04-20 12:49 24.85033 53.97892 27643 ft 460 kts 252°
2026-04-20 12:49 24.83931 53.94634 28054 ft 461 kts 252°
2026-04-20 12:50 24.82807 53.91315 28394 ft 463 kts 252°
2026-04-20 12:50 24.81679 53.87984 28720 ft 466 kts 252°
2026-04-20 12:50 24.80544 53.84636 29018 ft 468 kts 252°
2026-04-20 12:50 24.79401 53.81269 29315 ft 470 kts 252°
2026-04-20 12:51 24.78254 53.77892 29612 ft 472 kts 252°
2026-04-20 12:51 24.77101 53.74498 29892 ft 474 kts 252°
2026-04-20 12:51 24.75959 53.71143 30129 ft 475 kts 252°
2026-04-20 12:51 24.74801 53.67744 30447 ft 474 kts 252°
2026-04-20 12:52 24.73645 53.64355 30790 ft 472 kts 252°
2026-04-20 12:52 24.72493 53.60980 31139 ft 471 kts 252°
2026-04-20 12:52 24.71343 53.57610 31447 ft 470 kts 252°
2026-04-20 12:52 24.70194 53.54249 31719 ft 470 kts 252°
2026-04-20 12:53 24.69039 53.50867 31764 ft 474 kts 252°
2026-04-20 12:53 24.66710 53.44061 31864 ft 479 kts 252°
2026-04-20 12:53 24.65550 53.40676 32016 ft 480 kts 252°
2026-04-20 12:54 24.64373 53.37244 32236 ft 479 kts 252°
2026-04-20 12:54 24.63196 53.33823 32526 ft 478 kts 252°
2026-04-20 12:54 24.62025 53.30416 32775 ft 476 kts 252°
2026-04-20 12:54 24.60852 53.27009 32992 ft 476 kts 252°
2026-04-20 12:55 24.59682 53.23612 33216 ft 475 kts 253°
2026-04-20 12:55 24.58517 53.20231 33577 ft 471 kts 253°
2026-04-20 12:55 24.57358 53.16872 33752 ft 471 kts 253°
2026-04-20 12:56 24.55054 53.10197 33816 ft 470 kts 253°
2026-04-20 12:56 24.52740 53.03504 33826 ft 468 kts 253°
2026-04-20 12:57 24.50435 52.96850 33833 ft 464 kts 253°
2026-04-20 12:57 24.48145 52.90253 33817 ft 460 kts 253°
2026-04-20 12:58 24.45888 52.83760 33817 ft 457 kts 253°
2026-04-20 12:58 24.43626 52.77258 33829 ft 455 kts 253°
2026-04-20 12:59 24.41369 52.70779 33824 ft 454 kts 252°
2026-04-20 12:59 24.39113 52.64320 33825 ft 453 kts 252°
2026-04-20 13:00 24.36876 52.57924 33827 ft 452 kts 252°
2026-04-20 13:00 24.34623 52.51489 33817 ft 452 kts 252°
2026-04-20 13:01 24.32363 52.45047 33836 ft 453 kts 252°
2026-04-20 13:01 24.30094 52.38588 33831 ft 454 kts 252°
2026-04-20 13:02 24.27832 52.32160 33824 ft 456 kts 252°
2026-04-20 13:02 24.25546 52.25676 33819 ft 456 kts 253°
2026-04-20 13:03 24.23255 52.19185 33830 ft 457 kts 253°
2026-04-20 13:03 24.20959 52.12691 33829 ft 458 kts 253°
2026-04-20 13:04 24.18656 52.06187 33827 ft 458 kts 253°
2026-04-20 13:04 24.16368 51.99737 33826 ft 457 kts 253°
2026-04-20 13:05 24.14066 51.93259 33823 ft 456 kts 253°
2026-04-20 13:05 24.11770 51.86805 33829 ft 454 kts 253°
2026-04-20 13:06 24.09475 51.80364 33826 ft 453 kts 253°
2026-04-20 13:06 24.07203 51.73997 33831 ft 451 kts 253°
2026-04-20 13:07 24.04923 51.67619 33829 ft 449 kts 253°
2026-04-20 13:07 24.02648 51.61262 33828 ft 448 kts 253°
2026-04-20 13:08 24.00377 51.54925 33835 ft 447 kts 253°
2026-04-20 13:08 23.98108 51.48606 33827 ft 446 kts 253°
2026-04-20 13:09 23.95854 51.42336 33819 ft 446 kts 253°
2026-04-20 13:09 23.93583 51.36027 33823 ft 446 kts 252°
2026-04-20 13:10 23.91309 51.29720 33819 ft 446 kts 252°
2026-04-20 13:10 23.89030 51.23411 33818 ft 446 kts 252°
2026-04-20 13:11 23.86763 51.17142 33810 ft 447 kts 252°
2026-04-20 13:11 23.84478 51.10832 33809 ft 447 kts 252°
2026-04-20 13:12 23.82188 51.04520 33800 ft 447 kts 252°
2026-04-20 13:12 23.79895 50.98208 33799 ft 447 kts 252°
2026-04-20 13:13 23.77613 50.91938 33799 ft 447 kts 252°
2026-04-20 13:13 23.75314 50.85625 33787 ft 448 kts 251°
2026-04-20 13:14 23.73006 50.79300 33797 ft 449 kts 251°
2026-04-20 13:14 23.70690 50.72961 33796 ft 450 kts 251°
2026-04-20 13:15 23.68380 50.66649 33791 ft 452 kts 251°
2026-04-20 13:15 23.66044 50.60275 33785 ft 453 kts 251°
2026-04-20 13:16 23.63695 50.53876 33782 ft 456 kts 251°
2026-04-20 13:16 23.61333 50.47449 33780 ft 457 kts 251°
2026-04-20 13:17 23.58977 50.41050 33756 ft 459 kts 252°
2026-04-20 13:17 23.56597 50.34598 33780 ft 459 kts 253°
2026-04-20 13:18 23.54213 50.28139 33784 ft 460 kts 253°
2026-04-20 13:18 23.51825 50.21679 33775 ft 460 kts 252°
2026-04-20 13:19 23.49434 50.15225 33779 ft 458 kts 253°
2026-04-20 13:19 23.47066 50.08843 33771 ft 456 kts 253°
2026-04-20 13:20 23.44691 50.02450 33770 ft 454 kts 253°
2026-04-20 13:20 23.42324 49.96084 33760 ft 453 kts 253°
2026-04-20 13:21 23.39962 49.89742 33769 ft 451 kts 253°
2026-04-20 13:21 23.37619 49.83459 33765 ft 451 kts 253°
2026-04-20 13:22 23.35259 49.77139 33765 ft 451 kts 253°
2026-04-20 13:22 23.33592 49.70694 33771 ft 438 kts 268°
2026-04-20 13:23 23.33327 49.64084 33763 ft 438 kts 271°
2026-04-20 13:23 23.33089 49.57488 33765 ft 440 kts 269°
2026-04-20 13:24 23.32645 49.50825 33758 ft 443 kts 268°
2026-04-20 13:24 23.32093 49.44143 33754 ft 444 kts 267°
2026-04-20 13:25 23.31514 49.37460 33745 ft 444 kts 267°
2026-04-20 13:25 23.30934 49.30773 33750 ft 444 kts 267°
2026-04-20 13:26 23.30361 49.24141 33750 ft 443 kts 268°
2026-04-20 13:26 23.29784 49.17479 33747 ft 442 kts 268°
2026-04-20 13:27 23.29208 49.10837 33749 ft 441 kts 268°
2026-04-20 13:27 23.28628 49.04207 33759 ft 440 kts 268°
2026-04-20 13:28 23.28146 48.98708 33744 ft 439 kts 268°
2026-04-20 13:28 23.27469 48.91032 33758 ft 438 kts 268°
2026-04-20 13:29 23.26884 48.84434 33759 ft 438 kts 268°
2026-04-20 13:29 23.26397 48.78951 33758 ft 438 kts 267°
2026-04-20 13:30 23.25807 48.72353 33750 ft 438 kts 267°
2026-04-20 13:30 23.25117 48.64680 33752 ft 439 kts 267°
2026-04-20 13:31 23.24521 48.58075 33755 ft 439 kts 267°
2026-04-20 13:31 23.24023 48.52579 33745 ft 439 kts 267°
2026-04-20 13:32 23.23420 48.45965 33761 ft 440 kts 267°
2026-04-20 13:32 23.22716 48.38281 33748 ft 439 kts 267°
2026-04-20 13:33 23.22207 48.32744 33755 ft 439 kts 267°
2026-04-20 13:33 23.21600 48.26178 33754 ft 440 kts 267°
2026-04-20 13:34 23.20986 48.19563 33739 ft 440 kts 267°
2026-04-20 13:34 23.20370 48.12953 33740 ft 440 kts 267°
2026-04-20 13:35 23.19752 48.06345 33742 ft 440 kts 267°
2026-04-20 13:35 23.19134 47.99778 33755 ft 439 kts 267°
2026-04-20 13:36 23.18547 47.93180 33761 ft 438 kts 268°
2026-04-20 13:36 23.17988 47.86599 33753 ft 437 kts 268°
2026-04-20 13:37 23.17426 47.80032 33753 ft 436 kts 267°
2026-04-20 13:37 23.16862 47.73524 33758 ft 435 kts 267°
2026-04-20 13:38 23.16289 47.66978 33768 ft 435 kts 267°
2026-04-20 13:38 23.15715 47.60439 33769 ft 435 kts 267°
2026-04-20 13:39 23.15137 47.53899 33770 ft 435 kts 267°
2026-04-20 13:39 23.14562 47.47410 33786 ft 435 kts 267°
2026-04-20 13:40 23.13979 47.40866 33776 ft 436 kts 267°
2026-04-20 13:40 23.13392 47.34314 33775 ft 436 kts 267°
2026-04-20 13:41 23.12803 47.27756 33780 ft 436 kts 267°
2026-04-20 13:41 23.12210 47.21200 33782 ft 436 kts 267°
2026-04-20 13:42 23.11619 47.14688 33783 ft 436 kts 267°
2026-04-20 13:42 23.10723 47.04879 33774 ft 435 kts 267°
2026-04-20 13:43 23.10123 46.98352 33785 ft 434 kts 267°
2026-04-20 13:43 23.09526 46.91887 33781 ft 433 kts 267°
2026-04-20 13:44 23.08925 46.85397 33778 ft 432 kts 267°
2026-04-20 13:44 23.08321 46.78913 33784 ft 431 kts 267°
2026-04-20 13:45 23.07716 46.72439 33784 ft 431 kts 267°
2026-04-20 13:45 23.07112 46.66009 33781 ft 431 kts 267°
2026-04-20 13:46 23.06502 46.59539 33785 ft 431 kts 267°
2026-04-20 13:46 23.05889 46.53066 33783 ft 431 kts 267°
2026-04-20 13:47 23.05274 46.46602 33785 ft 430 kts 266°
2026-04-20 13:47 23.04661 46.40187 33786 ft 430 kts 266°
2026-04-20 13:48 23.04041 46.33733 33774 ft 430 kts 267°
2026-04-20 13:48 23.03417 46.27277 33781 ft 430 kts 266°
2026-04-20 13:49 23.02791 46.20812 33772 ft 431 kts 266°
2026-04-20 13:49 23.02162 46.14336 33767 ft 432 kts 266°
2026-04-20 13:50 23.01533 46.07896 33762 ft 432 kts 266°
2026-04-20 13:50 23.00897 46.01414 33765 ft 432 kts 266°
2026-04-20 13:51 23.00259 45.94930 33755 ft 432 kts 266°
2026-04-20 13:51 22.99618 45.88457 33753 ft 431 kts 266°
2026-04-20 13:52 22.98976 45.81996 33750 ft 430 kts 266°
2026-04-20 13:52 22.98337 45.75590 33744 ft 430 kts 266°
2026-04-20 13:53 22.97692 45.69148 33751 ft 429 kts 266°
2026-04-20 13:53 22.97044 45.62703 33756 ft 430 kts 266°
2026-04-20 13:54 22.96394 45.56255 33748 ft 430 kts 266°
2026-04-20 13:54 22.95743 45.49840 33747 ft 431 kts 266°
2026-04-20 13:55 22.95084 45.43366 33751 ft 432 kts 266°
2026-04-20 13:55 22.94421 45.36882 33754 ft 432 kts 265°
2026-04-20 13:56 22.93756 45.30403 33763 ft 432 kts 265°
2026-04-20 13:56 22.93089 45.23929 33750 ft 432 kts 265°
2026-04-20 13:57 22.92426 45.17507 33743 ft 431 kts 265°
2026-04-20 13:57 22.91769 45.11063 33757 ft 429 kts 267°
2026-04-20 13:58 22.91719 45.04613 33756 ft 427 kts 275°
2026-04-20 13:58 22.92185 44.98193 33743 ft 427 kts 274°
2026-04-20 13:59 22.92607 44.91808 33752 ft 428 kts 275°
2026-04-20 13:59 22.93025 44.85371 33761 ft 428 kts 274°
2026-04-20 14:00 22.93442 44.78919 33764 ft 429 kts 274°
2026-04-20 14:00 22.93858 44.72457 33761 ft 430 kts 275°
2026-04-20 14:01 22.94731 44.66098 33769 ft 430 kts 282°
2026-04-20 14:01 22.96393 44.59867 33768 ft 430 kts 287°
2026-04-20 14:02 22.98319 44.53715 33764 ft 431 kts 287°
2026-04-20 14:02 23.00238 44.47556 33764 ft 431 kts 287°
2026-04-20 14:03 23.02130 44.41436 33772 ft 431 kts 287°
2026-04-20 14:03 23.04029 44.35268 33774 ft 431 kts 287°
2026-04-20 14:04 23.05923 44.29103 33773 ft 430 kts 287°
2026-04-20 14:04 23.07815 44.22937 33774 ft 430 kts 287°
2026-04-20 14:05 23.09704 44.16767 33781 ft 431 kts 286°
2026-04-20 14:05 23.11579 44.10635 33776 ft 430 kts 286°
2026-04-20 14:06 23.13464 44.04465 33792 ft 430 kts 286°
2026-04-20 14:06 23.15344 43.98297 33818 ft 430 kts 286°
2026-04-20 14:07 23.17224 43.92129 33808 ft 430 kts 286°
2026-04-20 14:07 23.19086 43.86002 33811 ft 430 kts 286°
2026-04-20 14:08 23.20957 43.79834 33840 ft 430 kts 285°
2026-04-20 14:08 23.22826 43.73664 33840 ft 430 kts 286°
2026-04-20 14:09 23.24693 43.67495 33828 ft 430 kts 285°
2026-04-20 14:09 23.26545 43.61366 33851 ft 430 kts 285°
2026-04-20 14:10 23.28410 43.55181 33867 ft 431 kts 285°
2026-04-20 14:10 23.30272 43.48984 33875 ft 432 kts 285°
2026-04-20 14:11 23.32137 43.42768 33886 ft 433 kts 285°
2026-04-20 14:11 23.34006 43.36531 33881 ft 434 kts 285°
2026-04-20 14:12 23.35862 43.30327 33901 ft 434 kts 285°
2026-04-20 14:12 23.37730 43.24068 33902 ft 435 kts 285°
2026-04-20 14:13 23.39599 43.17803 33921 ft 435 kts 285°
2026-04-20 14:13 23.41464 43.11533 33913 ft 435 kts 285°